Regional Weather Roundup
Issued by NWS

Home | Current Version | Previous Version | Text Only | Print | Product List | Glossary Off
Versions: 1 2 3 4 5 6 7 8 9 10 11 12 13 14 15 16 17 18 19 20 21 22 23 24 25 26 27 28 29 30 31 32 33 34 35 36 37 38 39 40 41 42 43 44 45 46 47 48 49 50

000
ASUS43 KBIS 020201
RWRND

NORTH DAKOTA REGIONAL WEATHER ROUNDUP
NATIONAL WEATHER SERVICE BISMARCK ND
800 PM CST SUN MAR 01 2015

NOTE: "FAIR" INDICATES FEW OR NO CLOUDS BELOW 12,000 FEET WITH NO
SIGNIFICANT WEATHER AND/OR OBSTRUCTIONS TO VISIBILITY.


NDZ001>003-009>011-017-020300-
NORTHWEST NORTH DAKOTA

CITY           SKY/WX    TMP DP  RH WIND       PRES   REMARKS
WILLISTON      CLEAR     11   4  73 CALM      30.28S
MINOT          CLEAR     16   7  67 SW10      30.29R WCI   4
$$

NDZ018>021-031>035-040>046-020300-
SOUTHWEST NORTH DAKOTA

CITY           SKY/WX    TMP DP  RH WIND       PRES   REMARKS
BISMARCK       CLEAR     18   8  65 NW3       30.36R
DICKINSON      PTCLDY    12   8  84 SW3       30.26S
GARRISON         N/A     13   7  77 W7        30.30S WCI   3
HETTINGER ARPT CLEAR     12   5  73 CALM      30.30R
$$

NDZ004>008-012>016-024-026-027-054-020300-
NORTHEAST NORTH DAKOTA

CITY           SKY/WX    TMP DP  RH WIND       PRES   REMARKS
GRAND FORKS    CLEAR      7   2  80 SW7       30.32R WCI  -5
GRND FRKS AFB  PTCLDY    10   4  77 W8        30.32R WCI  -3
DEVILS LAKE    CLEAR     10   1  67 W12       30.29R WCI  -4
$$

NDZ022-023-025-028>030-036>039-047>053-020300-
SOUTHEAST NORTH DAKOTA

CITY           SKY/WX    TMP DP  RH WIND       PRES   REMARKS
FARGO          CLEAR     13   6  74 W9        30.35R WCI   1
JAMESTOWN      CLEAR     12   3  67 W8        30.34R WCI   0
$$



USA.gov is the U.S. government's official web portal to all federal, state and local government web resources and services.